Regional Weather Roundup
Issued by NWS Cleveland, OH

Home | Current Version | Previous Version | Graphics & Text | Print | Product List | Glossary On
Versions: 1 2 3 4 5 6 7 8 9 10 11 12 13 14 15 16 17 18 19 20 21 22 23 24 25 26 27 28 29 30 31 32 33 34 35 36 37 38 39 40 41 42 43 44 45 46 47 48 49 50
000
ASUS41 KCLE 191010
RWRCLE
OHIO REGIONAL WEATHER ROUNDUP
NATIONAL WEATHER SERVICE CLEVELAND, OH
500 AM EST FRI DEC 19 2014

NOTE: "FAIR" INDICATES FEW OR NO CLOUDS BELOW 12,000 FEET WITH NO
SIGNIFICANT WEATHER AND/OR OBSTRUCTIONS TO VISIBILITY.

OHZ001>008-015>018-024>027-034-035-043-044-191100-
   NORTHWEST OHIO

CITY           SKY/WX    TMP DP  RH WIND       PRES   REMARKS
DEFIANCE       CLOUDY    29  23  78 W3        30.23S
FINDLAY        CLOUDY    29  24  82 W7        30.20F WCI  22
TOLEDO EXPRESS CLOUDY    28  24  85 W7        30.21S WCI  21
TOLEDO EXEC    CLOUDY    30  25  81 W8        30.22S WCI  22
LIMA           CLOUDY    30  23  75 W8        30.21S HAZE    WCI  22
$$

OHZ009>014-019>023-028>033-038-089-191100-
   NORTHEAST OHIO

CITY           SKY/WX    TMP DP  RH WIND       PRES   REMARKS
CLE-HOPKINS    FLURRIES  29  26  89 N10       30.20S WCI  20
CLE-LAKEFRONT  CLOUDY    31  25  78 NW14      30.18R WCI  21
CUY CO. ARPT   NOT AVBL
LORAIN-ELYRIA  LGT SNOW  29  27  92 NW9       30.19S FOG     WCI  20
ASHTABULA      CLOUDY    30  24  78 NW8       30.15S WCI  22
AKRON-CANTON   LGT SNOW  29  25  85 W8        30.14F FOG     WCI  21
WOOSTER        CLOUDY    28  25  88 NW10      30.17S WCI  19
MANSFIELD      CLOUDY    27  25  92 W7        30.17S FOG     WCI  19
YOUNGSTOWN     LGT SNOW  29  27  92 W9        30.12F FOG     WCI  20
$$

OHZ042-051>053-060>062-070>072-077>081-191100-
  SOUTHWEST OHIO

CITY           SKY/WX    TMP DP  RH WIND       PRES   REMARKS
CINC-COVINGTON PTCLDY    25  19  78 CALM      30.23S
CINC-LUNKEN    MOCLDY    23  21  92 CALM      30.27S
HAMILTON       CLOUDY    28  22  78 NW7       30.26S WCI  21
DAYTON         CLOUDY    27  20  75 NW7       30.23S WCI  19
WRIGHT-PAT AFB CLOUDY    27  21  77 NW7       30.23S WCI  20
DAYTON GENERAL CLOUDY    27  20  75 NW6       30.22S WCI  20
WILMINGTON     CLOUDY    26  20  77 N8        30.21S WCI  18
$$

OHZ036-037-039>041-045>050-054>059-063>069-073>076-082>088-191100-
  CENTRAL AND SOUTHEAST OHIO

CITY           SKY/WX    TMP DP  RH WIND       PRES   REMARKS
COLUMBUS       CLOUDY    28  21  75 NW5       30.22S WCI  23
OSU AIRPORT    CLOUDY    28  22  78 W7        30.21S WCI  21
BOLTON FIELD   CLOUDY    28  22  81 MISG      30.22R
RICKENBACK AFB CLOUDY    28  21  75 W5        30.22S WCI  23
NEWARK         CLOUDY    29  22  75 W6        30.20F WCI  23
MARION         CLOUDY    27  23  85 W9        30.20F FOG     WCI  18
LANCASTER      CLOUDY    29  22  75 N6        30.22R WCI  23
ZANESVILLE     CLOUDY    28  21  75 W5        30.20F WCI  23
NEW PHILLY     CLOUDY    30  25  81 W3        30.19S
$$



USA.gov is the U.S. government's official web portal to all federal, state and local government web resources and services.